Location: PSU-Greenbush Astrophysical Observatory
(37.5140°N, 94.9880°W)
Time: 00:15:13
(UTC-06:00)

Altair - Visible Passes

Search period start: 24 January 2020 00:00
Search period end: 03 February 2020 00:00
Orbit: 1502 x 1682 km, 47.2° (Epoch: 23 January)

Date Brightness Start Highest point End Pass type
(mag) Time Alt. Az. Time Alt. Az. Time Alt. Az.
24 Jan 10.1 06:04:58 10° SSE 06:10:10 16° ESE 06:15:25 10° E visible
25 Jan 10.1 05:40:57 10° SSE 05:45:08 13° ESE 05:49:21 10° E visible
26 Jan 10.2 05:17:25 10° SE 05:20:06 11° ESE 05:22:49 10° ESE visible
27 Jan 8.8 06:48:44 10° SSW 06:58:02 48° SE 07:07:34 10° ENE visible
28 Jan 8.8 06:23:49 10° SSW 06:32:55 44° SE 06:42:15 10° ENE visible
29 Jan 8.9 05:58:55 10° SSW 06:07:48 40° SE 06:16:55 10° ENE visible
30 Jan 8.9 05:34:05 10° SSW 05:42:42 36° SE 05:51:34 10° ENE visible
31 Jan 9.0 05:09:16 10° S 05:17:37 33° SE 05:26:10 10° ENE visible
01 Feb 9.1 04:44:31 10° S 04:52:32 30° SE 05:00:45 10° ENE visible
01 Feb 7.7 06:46:34 10° SW 06:56:29 88° SE 07:06:41 10° ENE visible
02 Feb 9.1 04:19:49 10° S 04:27:28 27° SE 04:35:18 10° ENE visible
02 Feb 7.7 06:21:24 10° SW 06:31:16 84° SE 06:41:27 10° ENE visible
